Date String (YYYY-MM-DD hh:mm:ss) UTC,Instrument flags,Ambient pressure (hPa),Sample flow (lpm),Bypass flow (lpm),Sample temperature (°C),Ambient temperature (°C),ASC tube jacket temperature (°C),LED temperature (°C),Box temperature (°C),Sample RH (%),Span deviation,Mass concentration (μg/m³),Mass concentration (μg/m³),Mass concentration (μg/m³)
DateTimeUTC,F1_M11,P_M11,Q1_M11,Q2_M11,T1_M11,T2_M11,T3_M11,T4_M11,T5_M11,U1_M11,ZSPAN_M11,X0_M11,X2_M11,X1_M11
2021-11-12 17:00:00,,0832.7,4.99,0.00,22.9,22.2,00.0,31.7,24.7,13.1,0000.0,0011.15,0003.69,0003.00
2021-11-12 17:01:00,,0832.7,5.01,0.00,22.9,22.2,00.0,31.7,24.7,13.0,0000.0,0010.61,0003.67,0003.00
2021-11-12 17:02:00,,0832.8,4.99,0.00,22.9,22.2,00.0,31.7,24.7,13.0,0000.0,0009.94,0003.66,0003.01
2021-11-12 17:03:00,,0832.7,5.01,0.00,22.9,22.2,00.0,31.8,24.7,13.1,0000.0,0010.37,0003.65,0003.00
2021-11-12 17:04:00,,0832.8,4.99,0.00,22.9,22.2,00.0,31.8,24.7,13.0,0000.0,0011.50,0003.66,0003.00
2021-11-12 17:05:00,,0832.8,5.01,0.00,22.9,22.2,00.0,31.8,24.7,13.0,0000.0,0011.52,0003.71,0003.01
2021-11-12 17:06:00,,0832.7,4.98,0.00,22.9,22.2,00.0,31.8,24.8,12.9,0000.0,0011.25,0003.72,0003.02
2021-11-12 17:07:00,,0832.7,5.01,0.00,22.9,22.3,00.0,31.8,24.8,12.9,0000.0,0011.72,0003.75,0003.03
2021-11-12 17:08:00,,0832.7,4.99,0.00,23.0,22.3,00.0,31.8,24.8,12.9,0000.0,0012.01,0003.81,0003.02
2021-11-12 17:09:00,,0832.8,5.00,0.00,23.0,22.3,00.0,31.8,24.8,12.9,0000.0,0012.29,0003.85,0003.02
2021-11-12 17:10:00,,0832.8,5.00,0.00,23.0,22.4,00.0,31.8,24.8,12.9,0000.0,0012.75,0003.82,0002.99
2021-11-12 17:11:00,,0832.6,5.00,0.00,23.0,22.4,00.0,31.9,24.9,12.9,0000.0,0012.96,0003.80,0002.98
2021-11-12 17:12:00,,0832.5,4.99,0.00,23.1,22.4,00.0,31.9,24.9,12.9,0000.0,0013.06,0003.79,0002.99
2021-11-12 17:13:00,,0832.6,5.00,0.00,23.1,22.5,00.0,31.9,25.0,12.8,0000.0,0013.15,0003.79,0003.00
2021-11-12 17:14:00,,0832.6,5.00,0.00,23.1,22.5,00.0,31.9,25.0,12.7,0000.0,0012.68,0003.77,0002.98
2021-11-12 17:15:00,,0832.6,5.00,0.00,23.1,22.4,00.0,31.9,25.0,12.7,0000.0,0010.87,0003.76,0002.96
2021-11-12 17:16:00,,0832.7,5.00,0.00,23.1,22.4,00.0,32.0,24.9,12.6,0000.0,0010.06,0003.68,0002.92
2021-11-12 17:17:00,,0832.6,4.99,0.00,23.1,22.4,00.0,32.0,24.9,12.6,0000.0,0010.41,0003.64,0002.90
2021-11-12 17:18:00,,0832.6,5.00,0.00,23.1,22.4,00.0,32.0,24.9,12.7,0000.0,0010.17,0003.65,0002.89
2021-11-12 17:19:00,,0832.5,5.01,0.00,23.1,22.4,00.0,32.0,24.9,12.6,0000.0,0009.82,0003.62,0002.88
2021-11-12 17:20:00,,0832.5,5.00,0.00,23.1,22.4,00.0,32.0,24.9,12.7,0000.0,0009.92,0003.60,0002.89
2021-11-12 17:21:00,,0832.6,4.99,0.00,23.1,22.4,00.0,32.0,24.9,12.8,0000.0,0009.26,0003.60,0002.88
2021-11-12 17:22:00,,0832.6,5.01,0.00,23.1,22.4,00.0,32.0,24.9,12.8,0000.0,0009.15,0003.62,0002.90
2021-11-12 17:23:00,,0832.6,5.01,0.00,23.1,22.5,00.0,32.0,25.0,12.6,0000.0,0009.66,0003.64,0002.89
2021-11-12 17:24:00,,0832.6,4.99,0.00,23.1,22.5,00.0,32.0,25.0,12.7,0000.0,0009.39,0003.65,0002.86
2021-11-12 17:25:00,,0832.6,5.01,0.00,23.2,22.5,00.0,32.1,25.0,12.6,0000.0,0009.40,0003.64,0002.87
2021-11-12 17:26:00,,0832.6,4.99,0.00,23.2,22.5,00.0,32.1,25.0,12.6,0000.0,0009.71,0003.66,0002.88
2021-11-12 17:27:00,,0832.6,5.01,0.00,23.2,22.5,00.0,32.1,25.0,12.5,0000.0,0010.18,0003.67,0002.88
2021-11-12 17:28:00,,0832.7,5.00,0.00,23.2,22.6,00.0,32.1,25.0,12.5,0000.0,0010.41,0003.66,0002.89
2021-11-12 17:29:00,,0832.7,4.99,0.00,23.2,22.6,00.0,32.1,25.0,12.5,0000.0,0010.43,0003.63,0002.88
2021-11-12 17:30:00,,0832.7,5.01,0.00,23.3,22.6,00.0,32.1,25.1,12.4,0000.0,0010.54,0003.62,0002.88
2021-11-12 17:31:00,,0832.7,5.00,0.00,23.3,22.7,00.0,32.2,25.2,12.4,0000.0,0011.39,0003.63,0002.88
2021-11-12 17:32:00,,0832.6,4.99,0.00,23.3,22.7,00.0,32.2,25.2,12.4,0000.0,0012.40,0003.64,0002.89
2021-11-12 17:33:00,,0832.5,5.01,0.00,23.3,22.7,00.0,32.2,25.2,12.4,0000.0,0012.11,0003.65,0002.88
2021-11-12 17:34:00,,0832.5,4.98,0.00,23.4,22.7,00.0,32.2,25.2,12.3,0000.0,0012.07,0003.64,0002.89
2021-11-12 17:35:00,,0832.6,5.00,0.00,23.4,22.7,00.0,32.2,25.2,12.3,0000.0,0013.31,0003.65,0002.91
2021-11-12 17:36:00,,0832.7,5.02,0.00,23.4,22.7,00.0,32.2,25.2,12.3,0000.0,0014.10,0003.68,0002.90
2021-11-12 17:37:00,,0832.7,4.99,0.00,23.4,22.7,00.0,32.3,25.2,12.3,0000.0,0014.03,0003.66,0002.90
2021-11-12 17:38:00,,0832.6,4.99,0.00,23.4,22.7,00.0,32.3,25.2,12.3,0000.0,0014.09,0003.67,0002.91
2021-11-12 17:39:00,,0832.5,5.00,0.00,23.4,22.7,00.0,32.3,25.2,12.3,0000.0,0013.72,0003.70,0002.91
2021-11-12 17:40:00,,0832.6,5.00,0.00,23.4,22.7,00.0,32.3,25.2,12.3,0000.0,0014.25,0003.76,0002.93
2021-11-12 17:41:00,,0832.6,4.99,0.00,23.4,22.8,00.0,32.3,25.2,12.3,0000.0,0014.21,0003.79,0002.93
2021-11-12 17:42:00,,0832.6,5.01,0.00,23.4,22.8,00.0,32.3,25.3,12.3,0000.0,0013.21,0003.77,0002.92
2021-11-12 17:43:00,,0832.5,4.98,0.00,23.5,22.8,00.0,32.3,25.3,12.2,0000.0,0012.06,0003.75,0002.92
2021-11-12 17:44:00,,0832.5,5.00,0.00,23.5,22.8,00.0,32.4,25.3,12.2,0000.0,0012.11,0003.78,0002.93
2021-11-12 17:45:00,,0832.6,5.00,0.00,23.5,22.9,00.0,32.4,25.4,12.3,0000.0,0011.47,0003.76,0002.92
2021-11-12 17:46:00,,0832.5,5.00,0.00,23.5,22.9,00.0,32.4,25.4,12.3,0000.0,0010.40,0003.76,0002.91
2021-11-12 17:47:00,,0832.4,5.01,0.00,23.6,22.9,00.0,32.4,25.4,12.2,0000.0,0009.79,0003.76,0002.93
2021-11-12 17:48:00,,0832.4,5.00,0.00,23.6,22.9,00.0,32.4,25.5,12.3,0000.0,0009.67,0003.79,0002.95
2021-11-12 17:49:00,,0832.5,4.99,0.00,23.6,22.9,00.0,32.4,25.5,12.2,0000.0,0009.68,0003.82,0002.95
2021-11-12 17:50:00,,0832.5,5.01,0.00,23.6,22.9,00.0,32.5,25.5,12.1,0000.0,0009.99,0003.82,0002.97
2021-11-12 17:51:00,,0832.4,5.00,0.00,23.6,22.9,00.0,32.5,25.5,12.1,0000.0,0009.83,0003.79,0002.96
2021-11-12 17:52:00,,0832.5,5.01,0.00,23.6,22.9,00.0,32.5,25.5,12.0,0000.0,0010.27,0003.76,0002.95
2021-11-12 17:53:00,,0832.4,4.99,0.00,23.6,22.9,00.0,32.5,25.5,12.1,0000.0,0010.73,0003.79,0002.94
2021-11-12 17:54:00,,0832.3,5.00,0.00,23.6,22.9,00.0,32.5,25.5,12.1,0000.0,0011.25,0003.78,0002.92
2021-11-12 17:55:00,,0832.3,4.98,0.00,23.7,22.9,00.0,32.5,25.5,12.1,0000.0,0011.22,0003.75,0002.90
2021-11-12 17:56:00,,0832.5,5.00,0.00,23.7,23.0,00.0,32.6,25.5,12.1,0000.0,0011.19,0003.75,0002.90
2021-11-12 17:57:00,,0832.5,5.00,0.00,23.7,23.0,00.0,32.6,25.5,12.0,0000.0,0011.31,0003.77,0002.91
2021-11-12 17:58:00,,0832.4,4.99,0.00,23.7,23.0,00.0,32.6,25.5,12.0,0000.0,0011.41,0003.75,0002.88
2021-11-12 17:59:00,,0832.3,5.01,0.00,23.7,23.0,00.0,32.6,25.5,12.0,0000.0,0012.38,0003.76,0002.86
